Retour au catalogue

YAOGAN-50

ActifMilitaireLEO
NORAD 67433·PAYLOAD·🇨🇳 China

Lancé Jan 13, 2026 depuis Taiyuan Satellite Launch Center

Loading…

Prochains Passages (prochaines 24 heures)

TLE

FraisSource: Space-Track

Époque: Sep 14, 2026, 13:46 UTC

1 67433U 26006A   26257.57394948  .00000315  00000-0  11480-3 0  9994
2 67433 142.0416 287.7440 0001058 288.2462  71.8142 13.83249634 33812

Suivez YAOGAN-50 en temps réel avec AllMySat

Download on the App Store